This is the latest recevied weather packets stored in our database for station/object K4CRS-13. If no packets are shown the sender has not sent any weather packets the latest 10 day(s).
| Time | Temp. | Humidity | Pressure | Rain* | Wind** | Luminosity | Snow |
|---|---|---|---|---|---|---|---|
| 1777675134 | 16.67° C | 71% | 1048.9 hPa | 0 mm | - | 95 W/m² | - |
| 1777674831 | 16.67° C | 70% | 1048.6 hPa | 0 mm | - | 98 W/m² | - |
| 1777674527 | 16.67° C | 70% | 1048.4 hPa | 0 mm | - | 81 W/m² | - |
| 1777674225 | 16.67° C | 67% | 1048.8 hPa | 0 mm | - | 80 W/m² | - |
| 1777673921 | 16.67° C | 67% | 1048.6 hPa | 0 mm | - | 82 W/m² | - |
| 1777673618 | 17.22° C | 66% | 1048.4 hPa | 0 mm | - | 92 W/m² | - |
| 1777673316 | 17.22° C | 64% | 1048.6 hPa | 0 mm | - | 110 W/m² | - |
| 1777673013 | 17.22° C | 65% | 1048.3 hPa | 0 mm | - | 136 W/m² | - |
| 1777672709 | 17.22° C | 65% | 1048.3 hPa | 0 mm | - | 137 W/m² | - |
| 1777672406 | 17.22° C | 66% | 1048.3 hPa | 0 mm | - | 153 W/m² | - |
| 1777672101 | 17.22° C | 64% | 1048.2 hPa | 0 mm | - | 159 W/m² | - |
| 1777671796 | 17.22° C | 64% | 1047.7 hPa | 0 mm | - | 182 W/m² | - |
| 1777671493 | 17.22° C | 62% | 1048.2 hPa | 0 mm | - | 183 W/m² | - |
| 1777671189 | 17.22° C | 62% | 1048.2 hPa | 0 mm | - | 199 W/m² | - |
| 1777670885 | 16.67° C | 64% | 1047.9 hPa | 0 mm | - | 197 W/m² | - |
| 1777670582 | 17.22° C | 63% | 1048.3 hPa | 0 mm | - | 201 W/m² | - |
| 1777670279 | 17.22° C | 64% | 1048.1 hPa | 0 mm | - | 220 W/m² | - |
| 1777669977 | 17.22° C | 64% | 1048.3 hPa | 0 mm | - | 229 W/m² | - |
| 1777669673 | 17.22° C | 62% | 1048 hPa | 0 mm | - | 246 W/m² | - |
| 1777669370 | 17.22° C | 66% | 1048.1 hPa | 0 mm | - | 282 W/m² | - |
| 1777669066 | 17.22° C | 65% | 1048.1 hPa | 0 mm | - | 280 W/m² | - |
| 1777668763 | 17.22° C | 63% | 1048.6 hPa | 0 mm | - | 295 W/m² | - |
| 1777668460 | 16.67° C | 64% | 1048.6 hPa | 0 mm | - | 332 W/m² | - |
| 1777668157 | 16.67° C | 63% | 1048.8 hPa | 0 mm | - | 252 W/m² | - |
| 1777667853 | 17.22° C | 62% | 1049 hPa | 0 mm | - | 248 W/m² | - |
* Rain latest hour (hover to see other rain measurements)
** Current wind speed in m/s (hover to see current wind gust speed)